Location: Newark
(32.9533°N, 113.4900°W)
Time: 03:50:51
(UTC+00:00)

N. Korean satellite - Visible Passes

Search period start: 21 March 2019 00:00
Search period end: 31 March 2019 00:00
Orbit: 456 x 510 km, 97.2° (Epoch: 20 March)

Date Brightness Start Highest point End Pass type
(mag) Time Alt. Az. Time Alt. Az. Time Alt. Az.
21 Mar 9.5 13:00:50 10° NE 13:03:40 22° E 13:06:32 10° SSE visible
22 Mar 10.5 12:38:11 10° E 12:38:44 10° E 12:39:19 10° ESE visible
25 Mar 9.7 12:55:10 10° NE 12:57:48 19° E 13:00:27 10° SE visible
29 Mar 9.8 12:49:30 10° NE 12:51:52 16° E 12:54:15 10° SE visible
